This is the latest recevied weather packets stored in our database for station/object KY4EF. If no packets are shown the sender has not sent any weather packets the latest 10 day(s).
| Time | Temp. | Humidity | Pressure | Rain* | Wind** | Luminosity | Snow |
|---|---|---|---|---|---|---|---|
| 1778058390 | 18.33° C | 71% | 1011 hPa | 0 mm | - | 0 W/m² | - |
| 1778058086 | 18.33° C | 73% | 1010.8 hPa | 0 mm | - | 0 W/m² | - |
| 1778057783 | 18.89° C | 70% | 1011 hPa | 0 mm | - | 0 W/m² | - |
| 1778057479 | 18.89° C | 69% | 1011 hPa | 0 mm | - | 0 W/m² | - |
| 1778057176 | 18.33° C | 69% | 1010.9 hPa | 0 mm | - | 0 W/m² | - |
| 1778056872 | 18.33° C | 72% | 1010.7 hPa | 0 mm | - | 0 W/m² | - |
| 1778056570 | 18.33° C | 72% | 1010.9 hPa | 0 mm | - | 0 W/m² | - |
| 1778056267 | 18.89° C | 69% | 1010.8 hPa | 0 mm | - | 0 W/m² | - |
| 1778055964 | 18.33° C | 69% | 1011 hPa | 0 mm | - | 0 W/m² | - |
| 1778055659 | 18.33° C | 70% | 1010.9 hPa | 0 mm | - | 0 W/m² | - |
| 1778055358 | 18.33° C | 68% | 1011 hPa | 0 mm | - | 0 W/m² | - |
| 1778055055 | 18.33° C | 69% | 1011.1 hPa | 0 mm | - | 0 W/m² | - |
| 1778054753 | 18.33° C | 69% | 1011.1 hPa | 0 mm | - | 0 W/m² | - |
| 1778054449 | 18.33° C | 69% | 1011.1 hPa | 0 mm | - | 0 W/m² | - |
| 1778054147 | 18.33° C | 69% | 1011.4 hPa | 0 mm | - | 0 W/m² | - |
| 1778053843 | 18.33° C | 68% | 1011.2 hPa | 0 mm | - | 0 W/m² | - |
| 1778053541 | 18.33° C | 68% | 1011.2 hPa | 0 mm | - | 0 W/m² | - |
| 1778053238 | 18.33° C | 68% | 1011.1 hPa | 0 mm | - | 0 W/m² | - |
| 1778052936 | 18.33° C | 66% | 1011 hPa | 0 mm | - | 0 W/m² | - |
| 1778052633 | 18.33° C | 65% | 1011.1 hPa | 0 mm | - | 0 W/m² | - |
| 1778052330 | 18.33° C | 65% | 1011.2 hPa | 0 mm | - | 0 W/m² | - |
| 1778052028 | 18.89° C | 64% | 1011.3 hPa | 0 mm | - | 0 W/m² | - |
| 1778051725 | 18.89° C | 63% | 1011.1 hPa | 0 mm | - | 0 W/m² | - |
| 1778051422 | 18.89° C | 63% | 1011.3 hPa | 0 mm | - | 0 W/m² | - |
| 1778051120 | 18.33° C | 63% | 1011.4 hPa | 0 mm | - | 0 W/m² | - |
* Rain latest hour (hover to see other rain measurements)
** Current wind speed in m/s (hover to see current wind gust speed)